Regional Weather Roundup
Issued by NWS New Orleans/Baton Rouge, LA

Home | Current Version | Previous Version | Graphics & Text | Print | Product List | Glossary On
Versions: 1 2 3 4 5 6 7 8 9 10 11 12 13 14 15 16 17 18 19 20 21 22 23 24 25 26 27 28 29 30 31 32 33 34 35 36 37 38 39 40 41 42 43 44 45 46 47 48 49 50
521
ASUS44 KLIX 181501
RWRLIX
NEW ORLEANS REGIONAL WEATHER ROUNDUP
NATIONAL WEATHER SERVICE NEW ORLEANS LA
1000 AM CDT FRI APR 18 2014

NOTE: "FAIR" INDICATES FEW OR NO CLOUDS BELOW 12,000 FEET WITH NO
      SIGNIFICANT WEATHER AND/OR OBSTRUCTIONS TO VISIBILITY.
      SKY/WX - SKY CONDITION AND SIGNIFICANT WEATHER.
      TMP - AIR TEMPERATURE.     DP    - DEWPOINT TEMPERATURE.
      RH  - RELATIVE HUMIDITY.   PRES  - PRESSURE.
      HI  - HEAT INDEX.          WCI   - WIND CHILL INDEX.

*  THESE STATIONS ARE NOT NWS OR FAA STATIONS AND ARE NOT UNDER
   NWS QUALITY CONTROL.

LAZ038-040-048-061>063-065>067-069-181600-
SOUTHEAST LOUISIANA

CITY           SKY/WX    TMP DP  RH WIND       PRES   REMARKS
N.O. AUDUBON   NOT AVBL
N.O. INTL ARPT PTSUNNY   66  60  81 N12       30.11R
N.O. LAKEFRONT CLOUDY    65  61  87 N10       30.10S
N.O. DOWNTOWN* CLOUDY    64  57  77 N6        30.10S
SLIDELL        CLOUDY    64  60  87 N10       30.09S
BATON ROUGE    MOSUNNY   69  58  67 NE7       30.13S
BOOTHVILLE     LGT RAIN  61  60  97 N12G21    30.07S FOG
BELLE CHASSE   CLOUDY    65  59  81 NE13G18   30.08S
BOGALUSA*        N/A     65  59  78 NE9       30.13R
GALLIANO*      NOT AVBL
NEW ROADS*     NOT AVBL
GONZALES*      CLOUDY    67  60  78 N6        30.12R
HAMMOND*       NOT AVBL
HOUMA*         PTSUNNY   66  59  77 N14       30.10R FOG
PORT FOURCHON* PTSUNNY   64  61  88 N16G22    30.10S

$$

MSZ070-080>082-181600-
SOUTHERN MISSISSIPPI

CITY           SKY/WX    TMP DP  RH WIND       PRES   REMARKS
MCCOMB         MOSUNNY   66  57  72 NE8       30.14S
GULFPORT       CLOUDY    64  59  83 NE8       30.08S
BILOXI         NOT AVBL
PASCAGOULA     LGT RAIN  60  59  96 N15       30.08R FOG
STENNIS ARPT*  PTSUNNY   63  54  72 N6        30.09F

$$

COASTAL OBSERVATIONS
LAKE AND NEARSHORE STATIONS

STATION/POSITION TIME  TEMP    WIND        PRES    WAVE
                       AIR SEA DIR/SP/G            HT/PER
                 (UTC) (F)     (DEG/KT/KT) (MB)    (FT/S)
PASCAGOULA       1400   61      10/ 14/ 21 1017.3
WAVELAND YACHT   1400   62 65   50/  8/ 10 1017.9
GRAND ISLE       1400   63 66   20/ 16/ 22 1018.7
SOUTHWEST PASS   1400   64 58  360/ 20/ 23 1018.1
NEW CANAL        1400   63 63   30/ 12/ 14 1019.5
SHELL BEACH      1400   61 61   30/ 18/ 23 1018.6

OFFSHORE STATIONS

STATION/POSITION TIME  TEMP    WIND        PRES    WAVE
                       AIR SEA DIR/SP/G            HT/PER
                 (UTC) (F)     (DEG/KT/KT) (MB)    (FT/S)
64 S DAUPHIN ISL 1448   65 71   20/ 29/ 37 1015.2

$$




USA.gov is the U.S. government's official web portal to all federal, state and local government web resources and services.